FW2032 Weather Reports


time (UTC)temp
C
wind
direction
speed
KPH
gust
KPH
rain 1hr
cm
rain 24hr
cm
rain mn
cm
humidity
%
barometer
mb
20260505084031 12 32 22.5 33.8 0.00 0.00 0.00 50 1008.8
20260505083528 12 28 19.3 40.2 0.00 0.00 0.00 49 1008.3
20260505083040 13 44 24.1 40.2 0.00 0.00 0.00 48 1008.3
20260505082529 13 43 27.4 37.0 0.00 0.00 0.00 48 1008.2
20260505082029 13 42 24.1 37.0 0.00 0.00 0.00 48 1008.2
20260505081545 13 59 22.5 35.4 0.00 0.00 0.00 48 1008.3
20260505081029 13 44 17.7 30.6 0.00 0.00 0.00 49 1008.6
20260505080529 13 46 12.9 27.4 0.00 0.00 0.00 49 1008.7
20260505080046 13 42 17.7 27.4 0.00 0.00 0.00 49 1008.6
20260505075528 13 48 16.1 25.7 0.00 0.00 0.00 48 1008.8
20260505075028 13 46 12.9 20.9 0.00 0.00 0.00 48 1009.0
20260505074542 13 31 12.9 25.7 0.00 0.00 0.00 47 1009.1
20260505074028 13 34 11.3 25.7 0.00 0.00 0.00 47 1009.1
20260505073529 13 58 16.1 25.7 0.00 0.00 0.00 46 1009.0
20260505073046 13 42 12.9 29.0 0.00 0.00 0.00 46 1009.3
20260505072533 13 38 16.1 29.0 0.00 0.00 0.00 45 1009.3
20260505072029 13 26 16.1 29.0 0.00 0.00 0.00 45 1009.1
20260505071552 13 28 11.3 25.7 0.00 0.00 0.00 45 1009.2
20260505071029 13 40 16.1 27.4 0.00 0.00 0.00 44 1009.3
20260505070532 13 44 12.9 33.8 0.00 0.00 0.00 44 1009.2
20260505070046 13 32 17.7 33.8 0.00 0.00 0.00 44 1009.3
20260505065529 13 352 24.1 33.8 0.00 0.00 0.00 44 1009.2
20260505065028 13 49 17.7 38.6 0.00 0.00 0.00 45 1009.1
20260505064538 13 360 17.7 41.8 0.00 0.00 0.00 45 1009.3
20260505064028 13 5 25.7 41.8 0.00 0.00 0.00 44 1009.2
20260505063531 14 30 20.9 32.2 0.00 0.00 0.00 45 1009.1
20260505063100 14 28 16.1 38.6 0.00 0.00 0.00 45 1009.1
20260505062528 14 360 22.5 40.2 0.00 0.00 0.00 45 1008.8
20260505062029 14 44 22.5 40.2 0.00 0.00 0.00 44 1008.6
20260505061606 14 24 24.1 40.2 0.00 0.00 0.00 43 1008.4
20260505061031 14 24 24.1 40.2 0.00 0.00 0.00 43 1008.4
20260505060533 14 34 25.7 40.2 0.00 0.00 0.00 43 1008.5
20260505060042 15 51 27.4 40.2 0.00 0.00 0.00 43 1008.1
20260505055529 15 49 24.1 48.3 0.00 0.00 0.00 43 1008.0
20260505055030 15 45 30.6 48.3 0.00 0.00 0.00 44 1008.0
20260505054541 15 46 30.6 40.2 0.00 0.00 0.00 44 1008.1
20260505054028 15 35 20.9 35.4 0.00 0.00 0.00 46 1007.8
20260505053528 15 49 19.3 35.4 0.00 0.00 0.00 46 1007.6
20260505053047 16 26 20.9 35.4 0.00 0.00 0.00 45 1007.5
20260505052531 16 24 22.5 37.0 0.00 0.00 0.00 44 1007.4
20260505052028 16 29 22.5 37.0 0.00 0.00 0.00 44 1007.2
20260505051606 16 15 17.7 35.4 0.00 0.00 0.00 43 1007.1
20260505051033 16 42 20.9 37.0 0.00 0.00 0.00 43 1007.1
20260505050531 16 26 22.5 37.0 0.00 0.00 0.00 43 1006.9
20260505041543 19 40 20.9 37.0 0.00 0.00 0.00 41 1005.9
20260505041030 19 38 22.5 33.8 0.00 0.00 0.00 41 1005.8
20260505040530 19 35 14.5 27.4 0.00 0.00 0.00 42 1006.0
20260505040039 19 14 11.3 29.0 0.00 0.00 0.00 43 1005.9
20260505035529 19 24 14.5 30.6 0.00 0.00 0.00 42 1005.9
20260505035029 20 33 16.1 30.6 0.00 0.00 0.00 41 1005.7
20260505034543 20 33 17.7 29.0 0.00 0.00 0.00 41 1005.7
20260505034029 20 5 17.7 29.0 0.00 0.00 0.00 41 1005.5
20260505033533 20 9 17.7 29.0 0.00 0.00 0.00 41 1005.6
20260505033041 20 355 17.7 29.0 0.00 0.00 0.00 41 1005.5
20260505032529 21 13 12.9 33.8 0.00 0.00 0.00 41 1005.3
20260505032029 21 355 16.1 33.8 0.00 0.00 0.00 40 1005.0
20260505031539 21 28 17.7 33.8 0.00 0.00 0.00 39 1004.8
20260505031029 21 29 19.3 32.2 0.00 0.00 0.00 39 1004.8
20260505030529 21 22 17.7 27.4 0.00 0.00 0.00 40 1004.8
20260505030044 21 48 11.3 27.4 0.00 0.00 0.00 42 1004.7
20260505025530 21 42 14.5 27.4 0.00 0.00 0.00 42 1004.6
20260505025028 21 34 12.9 20.9 0.00 0.00 0.00 41 1004.4
20260505024548 22 40 12.9 25.7 0.00 0.00 0.00 42 1004.3
20260505024029 22 32 16.1 25.7 0.00 0.00 0.00 42 1004.2
20260505023529 21 24 16.1 25.7 0.00 0.00 0.00 44 1004.2
20260505023044 21 5 16.1 22.5 0.00 0.00 0.00 49 1004.0
20260505022531 21 336 11.3 20.9 0.00 0.00 0.00 56 1003.9
20260505022029 21 23 12.9 17.7 0.00 0.00 0.00 61 1003.8
20260505021549 21 11 12.9 20.9 0.00 0.00 0.00 65 1003.7
20260505021029 20 360 8.0 20.9 0.00 0.00 0.00 67 1003.5
20260505020529 21 344 4.8 8.0 0.00 0.00 0.00 65 1003.1
20260505020037 21 229 0.0 3.2 0.00 0.00 0.00 62 1002.8
20260505015530 22 0 0.0 3.2 0.00 0.00 0.00 61 1002.9
20260505015029 22 0 0.0 3.2 0.00 0.00 0.00 60 1002.7
20260505014537 22 228 1.6 3.2 0.00 0.00 0.00 60 1002.7
20260505014031 22 228 1.6 4.8 0.00 0.00 0.00 60 1002.6
20260505013529 22 228 1.6 4.8 0.00 0.00 0.00 60 1002.5
20260505013042 22 228 1.6 6.4 0.00 0.00 0.00 60 1002.5
20260505012529 22 228 3.2 6.4 0.00 0.00 0.00 59 1002.5
20260505012031 22 228 4.8 6.4 0.00 0.00 0.00 59 1002.5
20260505011545 22 228 4.8 6.4 0.00 0.00 0.00 59 1002.4
20260505011029 22 228 3.2 6.4 0.00 0.00 0.00 60 1002.3
20260505010529 22 228 4.8 6.4 0.00 0.00 0.00 60 1002.2
20260505010043 22 229 3.2 8.0 0.00 0.00 0.00 58 1002.1
20260505005529 23 229 4.8 8.0 0.00 0.00 0.00 58 1002.2
20260505005029 22 229 4.8 6.4 0.00 0.00 0.00 58 1002.1
20260505004544 23 229 3.2 6.4 0.00 0.00 0.00 60 1002.2
20260505004028 23 228 3.2 8.0 0.00 0.00 0.00 58 1002.2
20260505003528 23 227 3.2 11.3 0.00 0.00 0.00 57 1002.2
20260505003043 24 226 4.8 11.3 0.00 0.00 0.00 54 1002.1
20260505002528 24 222 8.0 12.9 0.00 0.00 0.00 53 1002.1
20260505002029 24 216 8.0 12.9 0.00 0.00 0.00 53 1002.1
20260505001539 25 225 9.7 14.5 0.00 0.00 0.00 51 1002.1
20260505001029 25 218 9.7 14.5 0.00 0.00 0.00 51 1002.2
20260505000530 25 221 8.0 14.5 0.00 0.00 0.00 50 1002.1
20260505000047 25 205 8.0 12.9 0.00 0.00 0.00 49 1002.1
20260504235529 25 198 8.0 14.5 0.00 0.00 0.00 49 1002.2
20260504235031 25 211 6.4 14.5 0.00 0.00 0.00 48 1002.2
20260504234542 26 221 8.0 14.5 0.00 0.00 0.00 48 1002.2
20260504234029 26 209 6.4 11.3 0.00 0.00 0.00 49 1002.2
20260504233531 26 201 6.4 17.7 0.00 0.00 0.00 50 1002.1
20260504233101 26 207 8.0 17.7 0.00 0.00 0.00 48 1002.2
20260504232529 26 196 8.0 14.5 0.00 0.00 0.00 48 1002.1
20260504232032 27 213 9.7 14.5 0.00 0.00 0.00 47 1002.1
20260504231546 26 197 8.0 14.5 0.00 0.00 0.00 48 1002.1
20260504231028 27 205 6.4 12.9 0.00 0.00 0.00 47 1002.1
20260504230528 27 203 8.0 12.9 0.00 0.00 0.00 49 1002.1
20260504230053 27 217 6.4 16.1 0.00 0.00 0.00 49 1002.1
20260504225529 26 223 9.7 20.9 0.00 0.00 0.00 49 1002.0
20260504225032 26 219 9.7 20.9 0.00 0.00 0.00 47 1002.0
20260504224540 26 221 8.0 19.3 0.00 0.00 0.00 47 1002.1
20260504224029 26 241 11.3 19.3 0.00 0.00 0.00 45 1002.0
20260504223530 26 225 9.7 17.7 0.00 0.00 0.00 46 1001.9
20260504223047 26 196 11.3 17.7 0.00 0.00 0.00 47 1001.9
20260504222528 26 204 11.3 24.1 0.00 0.00 0.00 47 1002.0
20260504222029 26 207 14.5 24.1 0.00 0.00 0.00 47 1001.9
20260504221539 26 204 16.1 24.1 0.00 0.00 0.00 43 1001.9
20260504221029 26 212 14.5 24.1 0.00 0.00 0.00 46 1001.9
20260504220529 27 210 14.5 22.5 0.00 0.00 0.00 44 1001.9
20260504220040 27 197 11.3 22.5 0.00 0.00 0.00 48 1002.0
20260504215529 27 232 16.1 22.5 0.00 0.00 0.00 44 1002.0
20260504215028 27 227 12.9 25.7 0.00 0.00 0.00 42 1002.1
20260504214548 27 228 12.9 25.7 0.00 0.00 0.00 44 1002.1
20260504214032 27 223 14.5 24.1 0.00 0.00 0.00 44 1002.1
20260504213529 27 229 16.1 24.1 0.00 0.00 0.00 43 1002.1
20260504213044 27 208 14.5 25.7 0.00 0.00 0.00 43 1002.2
20260504212529 27 200 12.9 25.7 0.00 0.00 0.00 43 1002.2
20260504212030 27 214 16.1 25.7 0.00 0.00 0.00 44 1002.3
20260504211541 27 236 14.5 24.1 0.00 0.00 0.00 41 1002.3
20260504211029 27 229 9.7 24.1 0.00 0.00 0.00 40 1002.3
20260504210529 27 218 14.5 24.1 0.00 0.00 0.00 37 1002.4
20260504210044 27 224 14.5 24.1 0.00 0.00 0.00 38 1002.4
20260504205532 28 226 11.3 22.5 0.00 0.00 0.00 39 1002.4
20260504205032 27 218 14.5 22.5 0.00 0.00 0.00 37 1002.4
20260504204546 27 213 12.9 20.9 0.00 0.00 0.00 41 1002.5
20260504204033 27 219 9.7 22.5 0.00 0.00 0.00 42 1002.5
20260504203532 27 200 12.9 24.1 0.00 0.00 0.00 43 1002.6
20260504203053 27 213 6.4 24.1 0.00 0.00 0.00 40 1002.7
20260504202530 27 210 14.5 22.5 0.00 0.00 0.00 41 1002.7
20260504202030 28 253 4.8 22.5 0.00 0.00 0.00 44 1002.7
20260504201541 28 256 9.7 22.5 0.00 0.00 0.00 42 1002.7
20260504201029 28 237 11.3 22.5 0.00 0.00 0.00 45 1002.7
20260504200532 28 240 3.2 22.5 0.00 0.00 0.00 44 1002.8
20260504200044 27 263 12.9 20.9 0.00 0.00 0.00 41 1002.7
20260504195532 27 175 8.0 19.3 0.00 0.00 0.00 43 1002.7
20260504195029 27 250 8.0 22.5 0.00 0.00 0.00 42 1002.8
20260504194540 27 220 12.9 22.5 0.00 0.00 0.00 43 1002.9
20260504194029 27 203 9.7 16.1 0.00 0.00 0.00 43 1002.9
20260504193533 27 244 4.8 14.5 0.00 0.00 0.00 40 1002.9
20260504193039 27 265 8.0 16.1 0.00 0.00 0.00 46 1002.9
20260504192531 27 250 8.0 19.3 0.00 0.00 0.00 43 1003.0
20260504192028 27 248 11.3 20.9 0.00 0.00 0.00 44 1003.0
20260504191543 27 268 3.2 20.9 0.00 0.00 0.00 46 1003.0
20260504191032 27 205 12.9 17.7 0.00 0.00 0.00 40 1003.0
20260504190532 27 187 9.7 19.3 0.00 0.00 0.00 42 1003.0
20260504190107 27 214 9.7 19.3 0.00 0.00 0.00 46 1003.1
20260504185532 27 267 4.8 14.5 0.00 0.00 0.00 42 1003.0
20260504185033 27 200 3.2 16.1 0.00 0.00 0.00 44 1003.0
20260504184541 27 222 6.4 19.3 0.00 0.00 0.00 46 1003.1
20260504184029 27 242 3.2 24.1 0.00 0.00 0.00 45 1003.0
20260504183529 27 273 9.7 24.1 0.00 0.00 0.00 45 1003.2
20260504183040 27 247 14.5 24.1 0.00 0.00 0.00 46 1003.1
20260504182532 26 193 9.7 17.7 0.00 0.00 0.00 47 1003.1
20260504182033 26 211 6.4 19.3 0.00 0.00 0.00 45 1003.1
20260504181542 26 274 11.3 19.3 0.00 0.00 0.00 47 1003.2
20260504181030 26 234 11.3 19.3 0.00 0.00 0.00 47 1003.2
20260504180533 26 233 11.3 19.3 0.00 0.00 0.00 46 1003.2
20260504180044 26 255 11.3 19.3 0.00 0.00 0.00 47 1003.2
20260504175528 26 264 8.0 17.7 0.00 0.00 0.00 51 1003.2
20260504175032 26 229 8.0 24.1 0.00 0.00 0.00 49 1003.3
20260504174544 25 231 12.9 24.1 0.00 0.00 0.00 49 1003.4
20260504174033 25 246 9.7 17.7 0.00 0.00 0.00 50 1003.4
20260504173531 25 223 12.9 20.9 0.00 0.00 0.00 48 1003.5
20260504173040 25 199 11.3 20.9 0.00 0.00 0.00 50 1003.5
20260504172530 25 244 11.3 20.9 0.00 0.00 0.00 49 1003.5
20260504172030 25 246 9.7 20.9 0.00 0.00 0.00 53 1003.5
20260504171546 25 236 12.9 20.9 0.00 0.00 0.00 53 1003.6
20260504171031 24 241 8.0 19.3 0.00 0.00 0.00 53 1003.7
20260504170528 24 225 12.9 19.3 0.00 0.00 0.00 52 1003.6
20260504151032 21 247 12.9 27.4 0.00 0.00 0.00 58 1004.0
20260504150534 21 257 17.7 29.0 0.00 0.00 0.00 58 1004.1
20260504141030 19 242 12.9 32.2 0.00 0.00 0.00 61 1004.2
20260504140529 19 246 17.7 32.2 0.00 0.00 0.00 60 1004.1
20260504130533 17 198 6.4 14.5 0.00 0.00 0.00 69 1004.0
20260504110535 13 189 6.4 11.3 0.00 0.00 0.00 78 1003.4
20260504100529 12 181 8.0 9.7 0.00 0.00 0.00 77 1004.1